Tracking 17632 objects as of 1-May-2016
HD Live streaming from Space Station
objects crossing your sky now

SDS-4

Track SDS-4 now!
10-day predictions
SDS-4 is classified as:


NORAD ID: 38339
Int'l Code: 2012-025C
Perigee: 661.4 km
Apogee: 673.5 km
Inclination: 98.4 °
Period: 97.9 minutes
Semi major axis: 7038 km
RCS: 0.47 m2 (medium)
Launch date: May 17, 2012
Source: Japan (JPN)
Launch site: TANEGASHIMA SPACE CENTER (TNSTA)
Your satellite tracking list
Your tracking list is empty





NASA's NSSDC Master Catalog

Two Line Element Set (TLE):
1 38339U 12025C   16121.81742167 +.00000191 +00000-0 +40457-4 0  9998
2 38339 098.3578 098.1153 0008614 131.8916 228.3026 14.70226214211920
Source of the keplerian elements: AFSPC

N2YO: 705